Meteo pe oră la Bolshie Polyany

Astăzi, 12 Mai, Miercuri

Timp Temperatura Precipitaţii Vânt Presiune Umiditate
00:00 +9°C° 0 mm 2 m/s 757 mmHg 88%
01:00 +9°C° 0 mm 1 m/s 757 mmHg 87%
02:00 +9°C° 0 mm 1 m/s 757 mmHg 87%
03:00 +9°C° 0 mm 1 m/s 757 mmHg 86%
04:00 +9°C° 0.1 mm 1 m/s 757 mmHg 86%
05:00 +10°C° 0.1 mm 1 m/s 757 mmHg 86%
06:00 +10°C° 0.1 mm 1 m/s 757 mmHg 86%
07:00 +9°C° 0.4 mm 2 m/s 757 mmHg 88%
08:00 +10°C° 0.4 mm 2 m/s 756 mmHg 89%
09:00 +10°C° 0.4 mm 2 m/s 756 mmHg 90%
10:00 +10°C° 0.3 mm 2 m/s 755 mmHg 89%
11:00 +11°C° 0.3 mm 3 m/s 754 mmHg 89%
12:00 +12°C° 0.3 mm 3 m/s 754 mmHg 89%
13:00 +12°C° 1.1 mm 4 m/s 753 mmHg 90%
14:00 +12°C° 1.1 mm 5 m/s 753 mmHg 92%
15:00 +13°C° 1.1 mm 6 m/s 752 mmHg 93%
16:00 +12°C° 1 mm 5 m/s 752 mmHg 94%
17:00 +12°C° 1 mm 4 m/s 752 mmHg 95%
18:00 +11°C° 1 mm 3 m/s 752 mmHg 97%
19:00 +10°C° 0 mm 3 m/s 753 mmHg 96%
20:00 +9°C° 0 mm 3 m/s 753 mmHg 95%
21:00 +9°C° 0 mm 3 m/s 753 mmHg 95%
22:00 +8°C° 0 mm 2 m/s 753 mmHg 95%
23:00 +8°C° 0 mm 2 m/s 753 mmHg 94%

Mâine, 13 Mai, Joi

Timp Temperatura Precipitaţii Vânt Presiune Umiditate
00:00 +8°C° 0 mm 2 m/s 753 mmHg 94%
01:00 +7°C° 0 mm 2 m/s 753 mmHg 95%
02:00 +7°C° 0 mm 2 m/s 753 mmHg 95%
03:00 +7°C° 0 mm 2 m/s 753 mmHg 95%
04:00 +7°C° 0 mm 2 m/s 753 mmHg 94%
05:00 +8°C° 0 mm 2 m/s 753 mmHg 93%
06:00 +8°C° 0 mm 2 m/s 753 mmHg 92%
07:00 +10°C° 0 mm 2 m/s 753 mmHg 87%
08:00 +12°C° 0 mm 3 m/s 752 mmHg 81%
09:00 +14°C° 0 mm 3 m/s 752 mmHg 75%
10:00 +16°C° 0 mm 3 m/s 752 mmHg 75%
11:00 +17°C° 0 mm 4 m/s 751 mmHg 75%
12:00 +18°C° 0 mm 4 m/s 751 mmHg 74%
13:00 +18°C° 0.2 mm 4 m/s 750 mmHg 77%
14:00 +17°C° 0.2 mm 4 m/s 750 mmHg 81%
15:00 +16°C° 0.2 mm 5 m/s 750 mmHg 84%
16:00 +17°C° 0.2 mm 4 m/s 750 mmHg 83%
17:00 +18°C° 0.2 mm 4 m/s 749 mmHg 83%
18:00 +18°C° 0.2 mm 4 m/s 749 mmHg 82%
19:00 +16°C° 0.2 mm 3 m/s 750 mmHg 85%
20:00 +13°C° 0.2 mm 3 m/s 750 mmHg 89%
21:00 +12°C° 0.2 mm 2 m/s 750 mmHg 92%
22:00 +12°C° 0 mm 2 m/s 750 mmHg 91%
23:00 +11°C° 0 mm 1 m/s 750 mmHg 91%

Poimâine, 14 Mai, Vineri

Timp Temperatura Precipitaţii Vânt Presiune Umiditate
00:00 +11°C° 0 mm 1 m/s 751 mmHg 90%
01:00 +11°C° 0 mm 1 m/s 751 mmHg 90%
02:00 +11°C° 0 mm 1 m/s 751 mmHg 91%
03:00 +10°C° 0 mm 1 m/s 751 mmHg 91%
04:00 +11°C° 0 mm 1 m/s 751 mmHg 90%
05:00 +12°C° 0 mm 1 m/s 751 mmHg 90%
06:00 +12°C° 0 mm 1 m/s 752 mmHg 89%
07:00 +14°C° 0 mm 2 m/s 752 mmHg 87%
08:00 +15°C° 0 mm 2 m/s 751 mmHg 85%
09:00 +16°C° 0 mm 2 m/s 751 mmHg 83%
10:00 +18°C° 0 mm 3 m/s 751 mmHg 77%
11:00 +20°C° 0 mm 4 m/s 751 mmHg 71%
12:00 +22°C° 0 mm 4 m/s 751 mmHg 65%
13:00 +23°C° 0 mm 4 m/s 750 mmHg 64%
14:00 +25°C° 0 mm 5 m/s 750 mmHg 63%
15:00 +25°C° 0 mm 5 m/s 750 mmHg 62%
16:00 +25°C° 0.5 mm 5 m/s 749 mmHg 66%
17:00 +23°C° 0.5 mm 4 m/s 749 mmHg 71%
18:00 +22°C° 0.5 mm 4 m/s 749 mmHg 75%
19:00 +21°C° 0.6 mm 4 m/s 748 mmHg 80%
20:00 +20°C° 0.6 mm 4 m/s 748 mmHg 84%
21:00 +19°C° 0.6 mm 4 m/s 748 mmHg 89%
22:00 +18°C° 0.8 mm 4 m/s 748 mmHg 90%
23:00 +18°C° 0.8 mm 3 m/s 748 mmHg 92%

15 Mai, Sâmbătă

Timp Temperatura Precipitaţii Vânt Presiune Umiditate
00:00 +18°C° 0.8 mm 3 m/s 748 mmHg 94%
01:00 +17°C° 0.2 mm 2 m/s 747 mmHg 94%
02:00 +17°C° 0.2 mm 2 m/s 747 mmHg 94%
03:00 +17°C° 0.2 mm 2 m/s 747 mmHg 93%
04:00 +17°C° 0.7 mm 2 m/s 747 mmHg 93%
05:00 +17°C° 0.7 mm 2 m/s 748 mmHg 93%
06:00 +17°C° 0.7 mm 2 m/s 748 mmHg 93%
07:00 +18°C° 0.2 mm 3 m/s 747 mmHg 89%
08:00 +19°C° 0.2 mm 4 m/s 747 mmHg 84%
09:00 +20°C° 0.2 mm 5 m/s 747 mmHg 80%
10:00 +21°C° 0.1 mm 5 m/s 746 mmHg 78%
11:00 +22°C° 0.1 mm 4 m/s 746 mmHg 75%
12:00 +23°C° 0.1 mm 4 m/s 746 mmHg 73%
13:00 +23°C° 0.3 mm 5 m/s 746 mmHg 72%
14:00 +24°C° 0.3 mm 6 m/s 747 mmHg 71%
15:00 +24°C° 0.3 mm 7 m/s 747 mmHg 70%
16:00 +23°C° 0.5 mm 6 m/s 747 mmHg 73%
17:00 +22°C° 0.5 mm 6 m/s 746 mmHg 76%
18:00 +22°C° 0.5 mm 5 m/s 746 mmHg 79%
19:00 +20°C° 0.4 mm 4 m/s 746 mmHg 83%
20:00 +19°C° 0.4 mm 4 m/s 747 mmHg 87%
21:00 +17°C° 0.4 mm 3 m/s 747 mmHg 91%
22:00 +17°C° 0 mm 3 m/s 747 mmHg 91%
23:00 +16°C° 0 mm 2 m/s 747 mmHg 91%

16 Mai, Duminică

Timp Temperatura Precipitaţii Vânt Presiune Umiditate
00:00 +16°C° 0 mm 2 m/s 747 mmHg 91%
01:00 +15°C° 0 mm 2 m/s 747 mmHg 91%
02:00 +15°C° 0 mm 2 m/s 747 mmHg 91%
03:00 +14°C° 0 mm 2 m/s 748 mmHg 91%
04:00 +14°C° 0 mm 2 m/s 748 mmHg 91%
05:00 +15°C° 0 mm 2 m/s 748 mmHg 91%
06:00 +15°C° 0 mm 2 m/s 748 mmHg 91%
07:00 +16°C° 0 mm 2 m/s 749 mmHg 85%
08:00 +18°C° 0 mm 2 m/s 749 mmHg 80%
09:00 +19°C° 0 mm 2 m/s 749 mmHg 74%
10:00 +20°C° 0 mm 2 m/s 749 mmHg 70%
11:00 +21°C° 0 mm 2 m/s 749 mmHg 66%
12:00 +23°C° 0 mm 2 m/s 749 mmHg 62%
13:00 +24°C° 0 mm 2 m/s 750 mmHg 61%
14:00 +24°C° 0 mm 2 m/s 750 mmHg 59%
15:00 +24°C° 0 mm 2 m/s 750 mmHg 57%
16:00 +24°C° 0 mm 2 m/s 750 mmHg 62%
17:00 +24°C° 0 mm 2 m/s 750 mmHg 66%
18:00 +23°C° 0 mm 2 m/s 750 mmHg 70%
19:00 +20°C° 0 mm 2 m/s 750 mmHg 74%
20:00 +19°C° 0 mm 2 m/s 750 mmHg 78%
21:00 +17°C° 0 mm 3 m/s 750 mmHg 82%
22:00 +16°C° 0 mm 3 m/s 750 mmHg 83%
23:00 +16°C° 0 mm 3 m/s 750 mmHg 83%

17 Mai, Luni

Timp Temperatura Precipitaţii Vânt Presiune Umiditate
00:00 +14°C° 0 mm 3 m/s 750 mmHg 84%
01:00 +14°C° 0 mm 3 m/s 750 mmHg 85%
02:00 +14°C° 0 mm 3 m/s 750 mmHg 86%
03:00 +13°C° 0 mm 3 m/s 751 mmHg 87%
04:00 +14°C° 0 mm 4 m/s 750 mmHg 87%
05:00 +14°C° 0 mm 4 m/s 750 mmHg 87%
06:00 +14°C° 0 mm 4 m/s 750 mmHg 87%
07:00 +17°C° 0 mm 4 m/s 750 mmHg 83%
08:00 +19°C° 0 mm 5 m/s 750 mmHg 80%
09:00 +21°C° 0 mm 5 m/s 750 mmHg 76%
10:00 +23°C° 0 mm 5 m/s 750 mmHg 70%
11:00 +25°C° 0 mm 5 m/s 750 mmHg 65%
12:00 +27°C° 0 mm 4 m/s 750 mmHg 59%
13:00 +28°C° 0 mm 4 m/s 750 mmHg 57%
14:00 +28°C° 0 mm 4 m/s 750 mmHg 55%
15:00 +29°C° 0 mm 4 m/s 749 mmHg 53%
16:00 +28°C° 0 mm 4 m/s 749 mmHg 58%
17:00 +27°C° 0 mm 3 m/s 749 mmHg 62%
18:00 +26°C° 0 mm 3 m/s 749 mmHg 67%
19:00 +24°C° 0 mm 3 m/s 749 mmHg 69%
20:00 +22°C° 0 mm 3 m/s 749 mmHg 72%
21:00 +20°C° 0 mm 3 m/s 749 mmHg 74%
22:00 +19°C° 0 mm 3 m/s 749 mmHg 74%
23:00 +19°C° 0 mm 3 m/s 749 mmHg 75%
Arată mai mult

Formular de consimțământ

Meteoprog și furnizorii noștri de servicii pot stoca și accesa date personale, precum cookies, identificatori de dispozitiv sau alte tehnologii similare pe dispozitivul dumneavoastră și procesa astfel de date pentru a personaliza conținutul și reclamele, dar și pentru a oferi caracteristici de social media și pentru a analiza traficul.

  • Stocarea și/sau accesarea informațiilor pe dispozitivul dumneavoastră

    Cookies, identificatori de dispozitiv sau alte informații pot fi stocate sau accesate pe dispozitiv în scopurile indicate mai sus.

  • Reclame și conținut personalizat, evaluarea reclamelor și a conținutului, informații despre audiențe și dezvoltarea produselor

    Reclamele și conținutul pot fi personalizate pe baza unui profil. Pot fi adăugate date suplimentare pentru a personaliza mai bine reclamele și conținutul. Performanța reclamelor și conținutului poate fi măsurată. Pot fi obținute informații despre utilizatorii care au văzut reclamele și conținutul. Aceste date pot fi utilizate pentru a dezvolta sau îmbunătăți experiența utilizatorilor, sistemele și software-ul.

Dând clic pe ‘Sunt de acord’, permiteți utilizarea cookie-urilor menționate, a identificatorilor de dispozitiv, balizelor web sau altor tehnologii similare. Setările pot fi modificate din browser-ul dispozitivului dumneavoastră.

În anumite scopuri, interesele legitime pot prima asupra consimțământului. Puteți citi mai multe informații în acest sens în Politica privind Confidențialitatea Datelor și Cookie.